View from above orbital plane
|
View from above satellite
|
Ground track
|
The orbit data is extracted from the following two-line orbital elements,
1 25544U 98067A 19053.51537736 .00016717 00000-0 10270-3 0 9024
2 25544 51.6372 211.4137 0005665 55.7185 304.4503 15.53288820 37436
Epoch (UTC): | 22 February 2019 12:22:08 |
Eccentricity: | 0.0005665 |
inclination: | 51.6372° |
perigee height: | 403 km |
apogee height: | 411 km |
right ascension of ascending node: | 211.4137° |
argument of perigee: | 55.7185° |
revolutions per day: | 15.53288820 |
mean anomaly at epoch: | 304.4503° |
orbit number at epoch: | 3743 |
The dashed part of the orbit path shows where the satellite is in the earth's shadow,
|
|